AirNav   Air Wisconsin Up To $57,000 Bonus
 
 1496 users online  

TE67 Cibolo Sea-Willo Airpark
New Berlin, Texas, USA

GOING TO NEW BERLIN?


FAA INFORMATION EFFECTIVE 11 AUGUST 2022

Location

FAA Identifier: TE67
Lat/Long: 29-25-44.8400N 098-07-54.0200W
29-25.747333N 098-07.900333W
29.4291222,-98.1316722
(estimated)
Elevation: 517 ft. / 158 m (estimated)
Variation: 07E (1995)
From city: 4 miles SW of NEW BERLIN, TX
Time zone: UTC -5 (UTC -6 during Standard Time)
Zip code: 78121

Airport Operations

Airport use: Private use. Permission required prior to landing
Activation date: 06/2000
Control tower: no
ARTCC: HOUSTON CENTER
FSS: SAN ANGELO FLIGHT SERVICE STATION
Attendance: UNATNDD
Wind indicator: yes
Segmented circle: no

Airport Communications

WX ASOS at BAZ (17 nm N): 119.325 (830-629-7979)
WX ASOS at SSF (19 nm W): PHONE 210-927-9391
WX ASOS at SAT (19 nm W): PHONE 210-805-5583

Nearby radio navigation aids

VOR radial/distance  VOR name  Freq  Var
RNDr119/9.7RANDOLPH VORTAC112.3005E
SSFr049/(19.3)STINSON VOR108.4009E
SATr119/21.5SAN ANTONIO VORTAC116.8008E

Airport Services

Runway Information

Runway 16/34

Dimensions: 2500 x 40 ft. / 762 x 12 m
Surface: asphalt
RUNWAY 16  RUNWAY 34
Traffic pattern: leftleft
Obstructions: 45 ft. trees, 500 ft. from runway30 ft. pole, 10 ft. from runway

Airport Ownership and Management from official FAA records

Ownership: Privately-owned
Owner: JOHN L. BOHANNON
9015 FM 775
SEGUIN, TX 78155
Phone 830-914-3288
Manager: LEONARD BOHANNON
334 CHURCH RD
SEGUIN, TX 78155
Phone (830) 556-6362

Additional Remarks

FOR CD CTC SAN ANTONIO APCH AT 210-805-5516.

Instrument Procedures

There are no published instrument procedures at TE67.

Some nearby airports with instrument procedures:

KRND - Randolph Air Force Base (10 nm NW)
KBAZ - New Braunfels National Airport (17 nm N)
KSSF - Stinson Municipal Airport (19 nm W)
KSAT - San Antonio International Airport (19 nm W)
KSKF - Kelly Field Airport (24 nm W)
 
Loc | Ops | Rwys | IFR | FBO | Links
Com | Nav | Svcs | Stats | Notes
Area around TE67 (Cibolo Sea-Willo Airpark)
 
Road maps at: MapQuest Bing Google
 
Aerial photo
WARNING: Photo may not be current or correct
Aerial photo of TE67 (Cibolo Sea-Willo Airpark)
Do you have a better or more recent aerial photo of Cibolo Sea-Willo Airpark that you would like to share? If so, please send us your photo.

 
Sectional chart

 
Airport distance calculator
Flying to Cibolo Sea-Willo Airpark? Find the distance to fly.

From to TE67

Sunrise and sunset
Times for 15-Aug-2022
 Local
(UTC-5)
 Zulu
(UTC)
Morning civil twilight06:3711:37
Sunrise07:0212:02
Sunset20:1201:12
Evening civil twilight20:3701:37

Current date and time
Zulu (UTC)  15-Aug-2022 21:49:01
Local (UTC-5)  15-Aug-2022 16:49:01
 
METAR
KRND 
9nm NW 
152100Z AUTO 13013KT 10SM SCT190 SCT220 33/17 A2989 RMK AO2 WSHFT 2050 SLP113 $
KSEQ 
14nm NE 
152056Z AUTO 17007KT 10SM M 35/18 A2988 RMK AO2 SLP113 T03480183 57020 $
KBAZ 
18nm N 
152051Z 19012G18KT 10SM SCT065 SCT080 34/21 A2989 RMK AO2 SLP113 T03440206 56018
KSSF 
18nm W 
152053Z VRB04KT 10SM FEW039 31/06 A2989 RMK AO2 RAB16E27 SLP110 P0000 60000 T03110061 58015
KSAT 
19nm W 
152051Z 15010G21KT 10SM -RA FEW031 SCT045 BKN065 OVC250 29/22 A2994 RMK AO2 RAB44 SLP119 P0000 60000 T02940217 57014
TAF
KRND 
9nm NW 
151603Z 1516/1622 10009KT 9999 SCT013 BKN040 BKN150 QNH2991INS TEMPO 1516/1519 9000 -SHRA SCT013 BKN018 BKN080 BECMG 1518/1519 14012G18KT 9999 SCT030 BKN070 QNH2985INS BECMG 1605/1606 VRB06KT 9999 FEW120 BKN170 QNH2992INS BECMG 1608/1609 VRB06KT 4800 BR FEW003 BKN010 OVC018 QNH2993INS BECMG 1614/1615 17009KT 9999 NSW FEW018 SCT026 QNH2988INS TX34/1520Z TN24/1611Z LAST NO AMDS AFT 1600 NEXT 1610
KSSF 
18nm W 
151726Z 1518/1618 14008KT P6SM VCSH BKN015 BKN050 OVC250 FM160000 12008KT P6SM BKN020 BKN050 OVC250 FM160900 12004KT P6SM OVC020 FM161500 15006KT P6SM FEW040 FEW250
KSAT 
19nm W 
151726Z 1518/1624 13012KT P6SM VCSH SCT015 BKN040 OVC250 FM160000 14010KT P6SM SCT020 BKN040 OVC250 FM160900 15005KT P6SM OVC020 FM161500 15008KT P6SM FEW040 FEW250
NOTAMs
Click for the latest NOTAMs
NOTAMs are issued by the DoD/FAA and will open in a separate window not controlled by AirNav.

 

 
 

Would you like to see your business listed on this page?

 If your business provides an interesting product or service to pilots, flight crews, aircraft, or users of the Cibolo Sea-Willo Airpark, you should consider listing it here.  To start the listing process, click on the button below
 
Add a business
 

Other Pages about Cibolo Sea-Willo Airpark

Update a link
 
Copyright © AirNav, LLC. All rights reserved. Privacy Policy  Contact